Long Beach, Daugherty Field, Airport Long Beach US
ICAO: KLGB
IATA: LGB
Category: Medium
Scheduled Services: Yes

Elevation: 60 ft
TransAlt. 18000 ft.

Airport Communications:
SOCAL APP:124.65
ATIS:127.75
CLNC DEL:118.15
CTAF:119.4
SOCAL DEP:127.2
GND:133
TWR:119.4
UNICOM:122.95

KLGB Zoom In..

If you have problems with the map follow the link
https://www.worldairports.se/pages/airport.php?
ICAO=KLGB

Runways:

(A) RW 07L length 6191 ft width 150 ft
---- / hdg 76

(B) RW 07R length 5421 ft width 150 ft
---- / hdg 76

(C) RW 12 length 10003 ft width 200 ft
---- / hdg 121

(D) RW 16L length 3330 ft width 75 ft
---- / hdg 166

(E) RW 16R length 4470 ft width 75 ft
---- / hdg 166

(F) RW 25L length 5421 ft width 150 ft
---- / hdg 256

(G) RW 25R length 6191 ft width 150 ft
---- / hdg 256

(H) RW 30 length 10003 ft width 200 ft
ILS 110.30 / hdg 301

(I) RW 34L length 4470 ft width 75 ft
---- / hdg 346

(J) RW 34R length 3330 ft width 75 ft
---- / hdg 346

Location; KLGB
Day. 18 / Time. 12.53 Zulu
* Altimeter: 30.18
* Temperature: 08° c. 46.4°f.
* Wind from: 320° Speed 04 kn.
Dewpoint: 04° c.
Visibility: 10 Statute Miles.
Clouds: Clear (automated report).

KLGB 181253Z 32004KT 10SM CLR 08/04 A3018 RMK AO2 SLP219 T00780039


Wind From 320°
Speed 04 kn.

 
 
jpsmedia worldairports.se 2020   terms of use